User: anonymous   Login
Location: Eymir
(36.7333°N, 29.7833°E)
Time: 12:56:34
(UTC+00:00)
Language:

Cosmos 1943 Rocket - Orbit

View from above orbital plane
View from above orbital plane
View from above satellite
View from above satellite

Ground track
Ground track

The orbit is defined by the following mean orbital elements,

1 19120U          26067.14827608 +.00000000 +00000-0 -47846-4 0 00007
2 19120  71.0132  71.8070 0022697 336.5845  23.4244 14.19615462    00
Epoch (UTC): 08 March 2026 03:33:31
Eccentricity: 0.0022697
inclination: 71.0132°
perigee height: 810 km
apogee height: 843 km
right ascension of ascending node: 71.8070°
argument of perigee: 336.5845°
revolutions per day: 14.19615462
mean anomaly at epoch: 23.4244°

The dashed part of the orbit path shows where the satellite is in the earth's shadow,  

DLR